Regional Weather Roundup
Issued by NWS

Home | Current Version | Previous Version | Text Only | Print | Product List | Glossary On
Versions: 1 2 3 4 5 6 7 8 9 10 11 12 13 14 15 16 17 18 19 20 21 22 23 24 25 26 27 28 29 30 31 32 33 34 35 36 37 38 39 40 41 42 43 44 45 46 47 48 49 50
000
ASUS43 KTOP 232108
RWRKS

WEATHER ROUNDUP FOR KANSAS
NATIONAL WEATHER SERVICE GOODLAND KS
400 PM CDT TUE MAY 23 2017

NOTE:  "FAIR" INDICATES FEW OR NO CLOUDS BELOW 12,000 FEET WITH NO
SIGNIFICANT WEATHER AND/OR OBSTRUCTIONS TO VISIBILITY.

KSZ001>006-013>018-027>032-041>047-232200-
NORTHWEST KANSAS

CITY           SKY/WX    TMP DP  RH WIND       PRES   REMARKS
GOODLAND       CLOUDY    58  37  45 N22G29    30.03F
HAYS           CLOUDY    61  41  47 N20G28    29.96S
HILL CITY      CLOUDY    63  35  35 N23G32    29.97F
RUSSELL        CLOUDY    62  41  46 N30G40    29.93F
$$

KSZ061>065-074>080-084>089-232200-
SOUTHWEST KANSAS

CITY           SKY/WX    TMP DP  RH WIND       PRES   REMARKS
DODGE CITY     CLOUDY    63  38  39 N17G28    29.98F
GARDEN CITY    CLOUDY    64  34  32 N21G32    30.00F
GREAT BEND     LGT RAIN  55  46  71 N10       29.95R
LIBERAL        CLOUDY    67  41  38 N18       30.01F
PRATT          CLOUDY    61  42  48 N17       29.94F
$$

KSZ066>073-081>083-090>101-232200-
SOUTHEAST KANSAS

CITY           SKY/WX    TMP DP  RH WIND       PRES   REMARKS
COFFEYVILLE    MOSUNNY   69  50  50 NW10      29.84F
HUTCHINSON     CLOUDY    65  45  48 W12       29.89F
MEDICINE LODGE   N/A     68  41  37 N15       29.92F
NEWTON         CLOUDY    64  45  49 NW14      29.89F
PARSONS        PTSUNNY   68  46  45 N12G18    29.85F
WICHITA INTL   CLOUDY    66  45  46 NW7       29.88F
WICHITA JABRA  CLOUDY    66  45  46 NW12      29.88F
WINFIELD       CLOUDY    67  43  41 NW12      29.89F
$$

KSZ007>012-019>026-033>040-048>060-102>105-232200-
NORTHEAST KANSAS

CITY           SKY/WX    TMP DP  RH WIND       PRES   REMARKS
CONCORDIA      CLOUDY    59  43  55 NW22G28   29.90S
EMPORIA        CLOUDY    64  46  52 NW7       29.84F
LAWRENCE       LGT RAIN  62  49  62 W9        29.82F
MANHATTAN      CLOUDY    60  46  59 N8G18     29.87R
MARYSVILLE     MOSUNNY   61  48  63 N21G26    29.85F
OLATHE IND     CLOUDY    64  46  52 NW10      29.82F
OLATHE EXE     CLOUDY    63  44  50 N12       29.81F
SALINA         CLOUDY    62  46  55 N17       29.91R
TOPEKA BILLARD CLOUDY    63  49  60 N7        29.82F
TOPEKA FORBES  CLOUDY    66  48  52 W6        29.81F
$$




USA.gov is the U.S. government's official web portal to all federal, state and local government web resources and services.